World > North America > United States > Wyoming > Bosler

Bosler, WY Hourly Weather Conditions

Feedback E-mail the Weather

Quick WX

Bosler, WY Weather Maps

°F °C°F °C
Bosler Weather Map
UTC Time: 11/27/2022, 18:18
Your Time:

Bosler, WY Regional Weather

Expires:202211271900;;902219
ASUS45 KCYS 271810
RWRWY 

WYOMING REGIONAL WEATHER ROUNDUP
NATIONAL WEATHER SERVICE CHEYENNE WY
1100 AM MST SUN NOV 27 2022

NOTE:  "FAIR" INDICATES FEW OR NO CLOUDS BELOW 12,000 FEET
WITH NO SIGNIFICANT WEATHER AND/OR OBSTRUCTIONS TO VISIBILITY.


WYZ021-027>030-104>119-271900-
...SOUTHERN WYOMING...
  
CITY           SKY/WX    TMP DP  RH WIND       PRES   REMARKS
EVANSTON       PTSUNNY   28  19  69 SW25G41   30.04F WCI  13          
6HR MIN TEMP:  21; 6HR MAX TEMP:  29;                                

KEMMERER       PTSUNNY   28  19  69 MISG      30.00F                  
FORT BRIDGER   NOT AVBL                                               
ROCK SPRINGS   PTSUNNY   28  19  69 W22       30.00S WCI  14          
6HR MIN TEMP:  19; 6HR MAX TEMP:  28;                                

DIXON          PTSUNNY   29  20  71 MISG      30.08F                  
RAWLINS        FLURRIES  26  18  71 SW22G37   29.94R WCI  12          
6HR MIN TEMP:  20; 6HR MAX TEMP:  27; 6HR PCP: TRACE;                

SARATOGA       PTSUNNY   32  18  55 SE9G21    29.96F WCI  24          
LARAMIE        MOSUNNY   29  18  63 W16       29.86F WCI  17          
6HR MIN TEMP:  14; 6HR MAX TEMP:  30;                                

CHEYENNE       MOSUNNY   33  28  81 SW17      29.85F WCI  22          
6HR MIN TEMP:  27; 6HR MAX TEMP:  33;                                

TORRINGTON     SUNNY     40  33  76 SW12      29.83F WCI  33          
6HR MIN TEMP:  30; 6HR MAX TEMP:  40;                                

PINE BLUFFS    NOT AVBL                                               

$$
  

SKY/WX - Weather  TMP - Temperature  DP - Dew Point  RH - Humidity
WIND - Wind Direction/Speed PRES - Barometric Pressure VSB - Visibility
WCI - Wind Chill Index E13G22 Wind - East Wind 13 mph/Gusts of 22 mph

Trending Headlines

Trending Entertainment Headlines

Bosler Radar Loop

Use the map search tool if you want to place a location marker on the radar map...

Bosler Quick Facts

National Two Day Weather Forecast


E-mail the Bosler Weather Forecast

Voice your opinion or tell us about page issues...